Crane, MT

3:06 AM MST on February 13, 2016 (GMT -0700)
Sidney-Richland Municipal

Weather History for KSDY - December, 2012

Change the Weather History Date:

Thursday, December 6, 2012

  Actual Average (KISN) Record (KISN)
Temperature  
Mean Temperature 28 °F 17 °F  
Max Temperature 39 °F 27 °F 63 °F (1939)
Min Temperature 15 °F 6 °F -30 °F (1972)
Degree Days  
Heating Degree Days 37 48  
Month to date heating degree days 284  
Since 1 July heating degree days 2446  
Cooling Degree Days 0 0  
Month to date cooling degree days 0  
Year to date cooling degree days 456  
Moisture  
Dew Point 20 °F    
Average Humidity 71    
Maximum Humidity 93    
Minimum Humidity 42    
Precipitation  
Precipitation 0.00 in 0.02 in 0.46 in (1916)
Month to date precipitation 0.12  
Year to date precipitation 13.87  
Sea Level Pressure  
Sea Level Pressure 29.96 in    
Wind  
Wind Speed 9 mph (West)    
Max Wind Speed 14 mph    
Max Gust Speed 22 mph    
Visibility 10 miles    
Events      
T = Trace of Precipitation, MM = Missing Value Source: NWS Daily Summary

Daily Weather History Graph

Daily Weather History Graph

Search for Another Location

Airport or City:

Trip Planner

Search our weather history database for the weather conditions in past years. The results will help you decide how hot, cold, wet, or windy it might be!

Date:

Astronomy

Dec. 06, 2012 Rise Set
Actual Time 7:30 AM MST 4:05 PM MST
Civil Twilight 6:55 AM MST 4:40 PM MST
Nautical Twilight 6:16 AM MST 5:19 PM MST
Astronomical Twilight 5:38 AM MST 5:57 PM MST
Moon No Moon Rise 11:59 AM MST (12/6)
Length of Visible Light 9h 45m
Length of Day
8h 34m
Waning Gibbous, 48% of the Moon is Illuminated
Dec 6
Waning Gibbous
Dec 13
New
Dec 19
First Quarter
Dec 28
Full
Jan 4
Last Quarter

Hourly Weather History & Observations

Time (MST) Temp. Windchill Dew Point Humidity Pressure Visibility Wind Dir Wind Speed Gust Speed Precip Events Conditions
12:15 AM 33.8 °F 24.3 °F 21.2 °F 60% 29.89 in 10.0 mi WSW 13.8 mph - N/A   Clear
12:35 AM 33.8 °F 25.8 °F 21.2 °F 60% 29.90 in 10.0 mi West 10.4 mph - N/A   Clear
12:55 AM 33.8 °F 27.7 °F 21.2 °F 60% 29.90 in 10.0 mi NW 6.9 mph - N/A   Clear
1:15 AM 33.8 °F 25.8 °F 21.2 °F 60% 29.91 in 10.0 mi WNW 10.4 mph - N/A   Scattered Clouds
1:35 AM 33.8 °F 24.3 °F 23.0 °F 65% 29.92 in 10.0 mi NW 13.8 mph 21.9 mph N/A   Mostly Cloudy
1:55 AM 33.8 °F 25.3 °F 24.8 °F 70% 29.93 in 10.0 mi NW 11.5 mph 21.9 mph N/A   Overcast
2:15 AM 33.8 °F 24.8 °F 24.8 °F 70% 29.95 in 10.0 mi NW 12.7 mph 20.7 mph N/A   Overcast
2:35 AM 33.8 °F 25.3 °F 24.8 °F 70% 29.96 in 10.0 mi NW 11.5 mph - N/A   Overcast
2:55 AM 32.0 °F 22.5 °F 24.8 °F 75% 29.96 in 10.0 mi NW 12.7 mph - N/A   Mostly Cloudy
3:15 AM 30.2 °F 20.8 °F 24.8 °F 80% 29.96 in 10.0 mi WNW 11.5 mph - N/A   Partly Cloudy
3:36 AM 28.4 °F 19.1 °F 23.0 °F 80% 29.97 in 10.0 mi WNW 10.4 mph - N/A   Clear
3:55 AM 26.6 °F 17.5 °F 21.2 °F 80% 29.97 in 10.0 mi West 9.2 mph - N/A   Clear
4:15 AM 28.4 °F 18.5 °F 23.0 °F 80% 29.98 in 10.0 mi West 11.5 mph - N/A   Clear
4:36 AM 28.4 °F 18.0 °F 24.8 °F 86% 29.98 in 10.0 mi West 12.7 mph - N/A   Clear
4:55 AM 28.4 °F 17.5 °F 24.8 °F 86% 29.98 in 10.0 mi West 13.8 mph - N/A   Clear
5:15 AM 28.4 °F 18.0 °F 21.2 °F 74% 29.98 in 10.0 mi West 12.7 mph - N/A   Clear
5:35 AM 26.6 °F 16.8 °F 21.2 °F 80% 29.99 in 10.0 mi WNW 10.4 mph - N/A   Clear
5:55 AM 26.6 °F 16.2 °F 21.2 °F 80% 29.99 in 10.0 mi WNW 11.5 mph - N/A   Clear
6:15 AM 28.4 °F 18.0 °F 21.2 °F 74% 29.99 in 10.0 mi West 12.7 mph - N/A   Clear
6:35 AM 26.6 °F 16.2 °F 21.2 °F 80% 29.99 in 10.0 mi West 11.5 mph - N/A   Clear
6:55 AM 26.6 °F 16.8 °F 19.4 °F 74% 29.99 in 10.0 mi West 10.4 mph - N/A   Clear
7:15 AM 26.6 °F 15.7 °F 19.4 °F 74% 29.99 in 10.0 mi West 12.7 mph - N/A   Clear
7:55 AM 26.6 °F 15.7 °F 19.4 °F 74% 29.99 in 10.0 mi West 12.7 mph - N/A   Clear
8:35 AM 28.4 °F 18.5 °F 21.2 °F 74% 30.00 in 10.0 mi West 11.5 mph - N/A   Clear
8:55 AM 30.2 °F 20.8 °F 21.2 °F 69% 30.00 in 10.0 mi West 11.5 mph - N/A   Clear
9:15 AM 30.2 °F 21.9 °F 21.2 °F 69% 30.01 in 10.0 mi West 9.2 mph - N/A   Clear
9:55 AM 33.8 °F 27.0 °F 23.0 °F 65% 30.01 in 10.0 mi West 8.1 mph - N/A   Clear
10:15 AM 33.8 °F 27.0 °F 21.2 °F 60% 30.01 in 10.0 mi West 8.1 mph - N/A   Clear
10:35 AM 35.6 °F 27.5 °F 21.2 °F 56% 30.01 in 10.0 mi West 11.5 mph - N/A   Clear
11:15 AM 35.6 °F 31.7 °F 21.2 °F 56% 30.01 in 10.0 mi SSE 4.6 mph - N/A   Clear
11:35 AM 35.6 °F 28.6 °F 23.0 °F 60% 30.00 in 10.0 mi West 9.2 mph - N/A   Clear
11:55 AM 35.6 °F 29.2 °F 21.2 °F 56% 29.99 in 10.0 mi WSW 8.1 mph - N/A   Clear
12:15 PM 35.6 °F 29.2 °F 21.2 °F 56% 29.99 in 10.0 mi WSW 8.1 mph - N/A   Clear
12:55 PM 37.4 °F 30.3 °F 21.2 °F 52% 29.96 in 10.0 mi WSW 10.4 mph - N/A   Clear
1:15 PM 37.4 °F 29.8 °F 19.4 °F 48% 29.96 in 10.0 mi West 11.5 mph - N/A   Clear
1:35 PM 37.4 °F 29.8 °F 19.4 °F 48% 29.96 in 10.0 mi West 11.5 mph - N/A   Clear
1:55 PM 37.4 °F 30.3 °F 17.6 °F 45% 29.96 in 10.0 mi West 10.4 mph - N/A   Clear
2:15 PM 39.2 °F 32.5 °F 17.6 °F 42% 29.96 in 10.0 mi West 10.4 mph - N/A   Partly Cloudy
2:35 PM 37.4 °F 32.8 °F 17.6 °F 45% 29.96 in 10.0 mi West 5.8 mph - N/A   Clear
2:55 PM 33.8 °F 29.6 °F 19.4 °F 56% 29.95 in 10.0 mi WNW 4.6 mph - N/A   Clear
3:35 PM 33.8 °F - 19.4 °F 56% 29.94 in 10.0 mi Calm Calm - N/A   Clear
3:55 PM 28.4 °F - 17.6 °F 64% 29.94 in 10.0 mi Calm Calm - N/A   Clear
4:15 PM 26.6 °F 21.2 °F 17.6 °F 69% 29.93 in 10.0 mi West 4.6 mph - N/A   Clear
4:35 PM 26.6 °F 20.0 °F 19.4 °F 74% 29.93 in 10.0 mi West 5.8 mph - N/A   Clear
4:55 PM 26.6 °F 19.1 °F 17.6 °F 69% 29.93 in 10.0 mi NW 6.9 mph - N/A   Clear
5:15 PM 26.6 °F 19.1 °F 17.6 °F 69% 29.94 in 10.0 mi WNW 6.9 mph - N/A   Clear
5:35 PM 26.6 °F - 19.4 °F 74% 29.93 in 10.0 mi Calm Calm - N/A   Clear
5:55 PM 24.8 °F 19.1 °F 17.6 °F 74% 29.94 in 10.0 mi NW 4.6 mph - N/A   Clear
6:15 PM 24.8 °F 20.5 °F 17.6 °F 74% 29.94 in 10.0 mi West 3.5 mph - N/A   Clear
6:55 PM 24.8 °F - 17.6 °F 74% 29.94 in 10.0 mi Calm Calm - N/A   Clear
7:35 PM 19.4 °F - 17.6 °F 93% 29.94 in 10.0 mi Calm Calm - N/A   Clear
7:55 PM 19.4 °F - 15.8 °F 86% 29.94 in 10.0 mi Calm Calm - N/A   Clear
8:15 PM 19.4 °F - 15.8 °F 86% 29.93 in 10.0 mi Calm Calm - N/A   Clear
8:35 PM 19.4 °F - 15.8 °F 86% 29.93 in 10.0 mi Calm Calm - N/A   Clear
8:55 PM 17.6 °F - 15.8 °F 93% 29.93 in 10.0 mi Calm Calm - N/A   Clear
9:15 PM 17.6 °F - 15.8 °F 93% 29.93 in 10.0 mi Calm Calm - N/A   Clear
9:55 PM 17.6 °F - 15.8 °F 93% 29.93 in 10.0 mi Calm Calm - N/A   Clear
10:15 PM 17.6 °F - 15.8 °F 93% 29.93 in 10.0 mi Calm Calm - N/A   Clear
10:35 PM 17.6 °F - 15.8 °F 93% 29.94 in 10.0 mi Calm Calm - N/A   Partly Cloudy
10:55 PM 17.6 °F - 12.2 °F 79% 29.94 in 10.0 mi Calm Calm - N/A   Mostly Cloudy
11:15 PM 17.6 °F - 12.2 °F 79% 29.94 in 10.0 mi Calm Calm - N/A   Scattered Clouds
11:35 PM 17.6 °F - 14.0 °F 86% 29.93 in 10.0 mi Calm Calm - N/A   Clear
11:55 PM 15.8 °F - 12.2 °F 86% 29.93 in 10.0 mi Calm Calm - N/A   Clear